{"data":{"norad_id":81228,"epoch":"2026-09-17T16:54:40.256640Z","epoch_age_seconds":256217,"freshness":"STALE","line1":"1 81228U          26260.70463260  .00002939  00000+0  85983-3 0  9993","line2":"2 81228  70.5199   8.9569 0059372 303.2220  56.3231 14.43839153666323","mean_motion":14.43839153,"eccentricity":0.0059372,"inclination_deg":70.5199,"raan_deg":8.9569,"arg_perigee_deg":303.222,"mean_anomaly_deg":56.3231,"bstar":0.00085983,"rev_number":66632,"period_min":99.734101060217,"perigee_km":703.54552909823,"apogee_km":788.1385055415,"semimajor_km":7123.9790173199,"source":"CELESTRAK","updated_at":"2026-09-20T09:00:32.384568Z"}}